Lid_Strength_Index
14 13 13 13 12 12 13 13 15 14 12 13 13 13 12 12 11 12 12 11 11 11 11 11 10 10 9 9 8 8 8 8 8 7 7 7 7 6 5 5 5 5 5 4
17 14 14 15 13 13 12 12 13 12 13 12 12 13 13 12 11 12 12 12 11 11 11 11 10 10 9 9 9 8 8 8 7 7 7 7 7 7 7 6 6 6 6 5
19 16 15 17 15 14 15 15 14 17 15 14 14 13 13 13 12 12 12 12 12 11 10 10 10 10 10 10 9 9 9 8 8 8 8 8 7 7 7 7 7 7 6 6
19 17 21 15 13 12 14 15 15 15 15 14 14 14 13 12 13 13 12 12 12 11 11 10 10 9 10 9 10 10 9 9 9 8 8 8 8 7 7 8 8 7 6 7
20 20 17 15 14 15 15 15 14 15 14 14 13 14 15 12 12 12 12 11 11 11 10 11 10 10 10 10 9 10 9 9 9 9 9 9 9 8 7 7 7 8 7 6
18 20 19 16 13 11 11 15 13 13 14 14 13 17 15 12 11 11 11 11 11 11 10 10 10 10 10 10 10 10 9 9 8 8 9 9 9 9 8 8 7 6 6 6
16 18 16 14 12 11 15 16 12 12 13 13 14 14 12 10 10 10 10 10 9 9 11 11 10 10 11 10 10 9 9 8 9 9 9 9 9 9 9 9 7 7 7 6
17 18 18 11 12 15 13 12 11 12 12 12 11 10 10 10 10 10 10 9 9 10 9 9 9 10 10 11 9 9 9 9 9 9 9 8 9 9 9 9 9 9 8 7
15 16 11 11 12 10 10 12 11 11 10 9 10 10 10 10 10 9 9 9 8 9 9 9 9 9 10 9 9 9 10 10 9 9 9 8 9 9 9 9 9 8 8 8
15 13 12 10 9 9 9 9 9 9 9 9 9 9 10 9 9 9 9 9 8 9 9 9 8 8 8 8 8 8 9 9 9 10 9 8 8 8 9 9 9 8 9 8
13 11 11 9 9 8 7 7 7 7 7 8 8 9 9 10 10 10 10 9 9 10 10 10 9 9 8 7 7 8 8 8 8 8 9 9 9 8 9 8 8 8 8 8
13 9 9 9 7 6 6 7 6 7 7 7 7 9 9 10 9 10 10 10 10 10 10 10 10 10 9 8 8 9 10 9 8 8 8 8 8 8 7 7 7 7 7 7
9 7 7 6 6 6 6 6 6 7 7 8 8 8 8 9 9 8 10 10 10 10 10 10 10 10 9 8 8 9 9 9 9 8 8 8 8 8 9 7 6 6 6 6
5 6 8 7 8 6 6 6 6 7 7 8 9 9 10 10 10 10 10 9 8 8 8 8 8 8 7 7 7 7 7 7 8 8 8 8 8 8 8 9 9 8 6 6
6 6 7 7 6 7 7 7 8 9 9 10 9 10 10 11 11 11 10 9 9 9 8 10 10 9 8 7 8 8 7 7 7 8 8 8 8 8 8 8 9 8 7 6
7 7 7 7 8 8 8 9 10 10 10 10 11 11 11 11 11 10 10 9 10 10 9 9 9 8 8 8 8 8 7 7 7 7 7 7 7 8 8 8 7 7 7 7
9 9 8 9 9 9 9 9 9 10 10 11 10 10 10 11 12 11 11 10 10 10 10 10 9 9 9 9 9 9 9 8 7 8 8 8 7 6 6 6 7 7 7 7
7 7 8 8 8 8 9 9 9 9 10 10 10 10 10 11 12 12 12 11 11 11 11 10 9 10 10 10 10 10 10 10 10 10 10 10 10 9 8 7 6 5 5 4
6 7 8 7 8 8 9 9 9 9 9 9 10 11 11 10 11 11 11 11 12 12 11 10 9 10 10 10 10 11 12 12 12 12 11 11 12 11 11 11 10 10 9 6
7 7 7 7 8 8 9 8 9 9 10 10 11 11 11 11 11 11 12 12 12 11 10 9 10 10 10 10 10 11 12 12 13 13 12 13 13 13 12 12 12 12 11 11
7 7 8 8 8 8 8 8 9 10 10 10 11 12 12 11 11 12 13 13 11 10 10 9 9 10 10 10 10 11 11 11 12 12 13 13 13 14 14 13 13 13 13 12
7 7 8 8 8 9 9 10 10 10 11 11 11 12 13 14 13 13 13 12 11 9 11 10 10 9 10 10 11 11 11 11 11 11 11 12 13 13 14 14 14 13 13 13
7 6 8 8 9 10 10 10 11 11 11 12 13 13 14 14 15 14 14 12 11 10 12 11 8 8 9 11 11 11 11 11 11 12 11 11 12 12 13 13 13 13 13 13
7 7 8 8 10 10 12 11 11 11 12 12 12 14 15 15 14 13 13 11 9 10 11 10 9 8 9 12 11 11 11 11 11 11 12 10 11 11 12 12 13 13 13 13
7 8 8 10 11 12 12 12 12 13 13 14 14 13 13 13 15 14 14 13 10 10 13 10 9 9 12 12 12 12 12 11 10 11 12 11 11 11 12 11 12 12 12 13
8 9 10 11 12 12 13 13 14 14 13 14 14 14 14 13 13 14 14 10 12 10 12 13 11 11 13 12 12 13 13 13 11 11 11 12 11 11 11 11 11 12 12 12
10 9 12 12 11 12 12 12 13 15 14 13 14 14 14 14 13 12 11 15 16 16 16 15 15 12 13 12 14 15 14 14 11 11 12 11 11 11 11 10 10 10 11 11